Flag for USA

Past Weather in Chico, California, USA — Yesterday and Last 2 Weeks

Now
66 °F

Sunny.


Feels Like: 66 °F
Forecast: 98 / 66 °F
Wind: 6 mph from Northwest

Location: Chico Municipal
Current Time: Sep 28, 2020 at 9:09:31 am
Latest Report: Sep 28, 2020 at 7:49 am
Visibility: 40 mi
Pressure30.00 "Hg
Humidity: 26%
Dew Point: 30 °F
Location of ChicoLocation

Past Weather in Chico — Graph

°F

Chico Temperature Yesterday

Maximum temperature yesterday: 99 °F (at 3:50 pm)
Minimum temperature yesterday: 68 °F (at 6:15 am)
Average temperature yesterday: 78 °F

High & Low Weather Summary for the Past Weeks

 TemperatureHumidityPressure
High99 °F (Sep 27, 3:50 pm)73% (Sep 24, 5:55 am)30.09 "Hg (Sep 24, 5:55 am)
Low57 °F (Sep 15, 7:48 am)10% (Sep 27, 3:50 pm)29.82 "Hg (Sep 20, 4:49 pm)
Average73 °F40%29.95 "Hg
* Reported Sep 13 7:47 am — Sep 28 7:49 am, Chico. Weather by CustomWeather, © 2020

Note: Actual official high and low records may vary slightly from our data, if they occured in-between our weather recording intervals... More about our weather records

Chico Weather History for the Previous 24 Hours

Scroll right to see more
 ConditionsComfort  
Time TempWeatherWind HumidityBarometerVisibility
7:49 am
Mon, Sep 28
66 °FSunny.6 mph26%30.00 "Hg40 mi
6:50 am64 °FPassing clouds.3 mph30%30.00 "Hg10 mi
5:55 am64 °FPassing clouds.5 mph30%29.98 "Hg10 mi
5:15 am68 °FPassing clouds.5 mph26%29.98 "Hg10 mi
4:55 am66 °FPassing clouds.3 mph26%29.98 "Hg10 mi
4:35 am68 °FPassing clouds.6 mph24%29.96 "Hg10 mi
3:55 am64 °FPassing clouds.No wind37%29.96 "Hg10 mi
3:35 am66 °FPassing clouds.No wind28%29.96 "Hg10 mi
3:15 am64 °FPassing clouds.7 mph30%29.97 "Hg10 mi
2:55 am64 °FClear.3 mph30%29.96 "Hg10 mi
2:35 am70 °FClear.3 mph25%29.96 "Hg7 mi
2:15 am72 °FClear.No wind23%29.97 "Hg10 mi
1:55 am72 °FPassing clouds.No wind23%29.96 "Hg3 mi
1:35 am72 °FOvercast.No wind23%29.96 "Hg2 mi
1:15 am72 °FOvercast.No wind27%29.96 "Hg2 mi
12:55 am73 °FOvercast.No wind25%29.97 "Hg3 mi
12:35 am75 °FOvercast.No wind21%29.96 "Hg10 mi
12:15 am75 °FOvercast.5 mph24%29.95 "Hg9 mi
11:55 pm
Sun, Sep 27
75 °FOvercast.No wind25%29.96 "Hg10 mi
11:15 pm77 °FMostly cloudy.No wind21%29.95 "Hg10 mi
10:55 pm75 °FMostly cloudy.No wind21%29.94 "Hg10 mi
10:35 pm79 °FOvercast.5 mph18%29.93 "Hg10 mi
10:15 pm77 °FPassing clouds.5 mph22%29.93 "Hg10 mi
9:55 pm81 °FOvercast.No wind20%29.92 "Hg10 mi
9:35 pm81 °FOvercast.No wind20%29.92 "Hg10 mi
9:15 pm84 °FOvercast.No wind16%29.91 "Hg10 mi
8:55 pm82 °FOvercast.6 mph17%29.91 "Hg10 mi
8:35 pm82 °FOvercast.No wind16%29.90 "Hg10 mi
8:15 pm86 °FOvercast.6 mph14%29.89 "Hg10 mi
6:51 pm90 °FPartly sunny.8 mph17%29.87 "Hg10 mi
4:47 pm99 °FScattered clouds.20 mph10%29.87 "Hg40 mi
3:50 pm99 °FSunny.17 mph10%29.89 "Hg40 mi
2:47 pm95 °FSunny.20 mph11%29.90 "Hg40 mi
1:55 pm95 °FSunny.21 mph11%29.93 "Hg20 mi
12:47 pm91 °FSunny.22 mph14%29.96 "Hg25 mi
11:49 am88 °FSunny.22 mph17%29.97 "Hg25 mi
10:52 am84 °FSunny.23 mph20%29.98 "Hg20 mi
9:50 am79 °FSunny.15 mph26%29.99 "Hg10 mi
Weather by CustomWeather, © 2020

See weather overview